Cook, MN

6:39 PM CDT on May 26, 2018 (GMT -0500)
Cook Municipal

Weather History for KCQM - December, 2012

Change the Weather History Date:

Monday, December 10, 2012

  Actual Average Record
Temperature  
Mean Temperature 0 °F -  
Max Temperature 10 °F 25 °F 42 °F (2002)
Min Temperature -11 °F 10 °F -29 °F (2013)
Degree Days  
Heating Degree Days 66    
Moisture  
Dew Point -5 °F    
Average Humidity 84    
Maximum Humidity 92    
Minimum Humidity 72    
Precipitation  
Precipitation 0.00 in - - ()
Sea Level Pressure  
Sea Level Pressure 29.86 in    
Wind  
Wind Speed 2 mph (NW)    
Max Wind Speed 7 mph    
Max Gust Speed -    
Visibility 9 miles    
Events Snow    
Averages and records for this station are not official NWS values.
T = Trace of Precipitation, MM = Missing Value Source: NWS Daily Summary

Daily Weather History Graph

Daily Weather History Graph

Search for Another Location

Airport or City:

Astronomy

Dec. 10, 2012 Rise Set
Actual Time 7:49 AM CST 4:18 PM CST
Civil Twilight 7:13 AM CST 4:54 PM CST
Nautical Twilight 6:33 AM CST 5:33 PM CST
Astronomical Twilight 5:56 AM CST 6:11 PM CST
Moon 4:24 AM CST (12/10) 2:14 PM CST (12/10)
Length of Visible Light 9h 40m
Length of Day
8h 28m
Waning Crescent, 10% of the Moon is Illuminated
Dec 10
Waning Crescent
Dec 13
New
Dec 19
First Quarter
Dec 28
Full
Jan 4
Last Quarter

Hourly Weather History & Observations

Time (CST) Temp. Windchill Dew Point Humidity Pressure Visibility Wind Dir Wind Speed Gust Speed Precip Events Conditions
12:16 AM 6.8 °F -0.1 °F 3.2 °F 85% 29.99 in 5.0 mi NNW 3.5 mph - N/A Snow Light Snow
12:37 AM 6.8 °F -4.8 °F 3.2 °F 85% 29.98 in 4.0 mi NNW 6.9 mph - N/A Snow Light Snow
12:56 AM 6.8 °F - 1.4 °F 79% 29.97 in 5.0 mi Calm Calm - N/A Snow Light Snow
1:16 AM 5.0 °F -4.1 °F 1.4 °F 85% 29.97 in 5.0 mi NNW 4.6 mph - N/A Snow Light Snow
1:37 AM 5.0 °F -2.1 °F 1.4 °F 85% 29.96 in 7.0 mi NNW 3.5 mph - N/A Snow Light Snow
1:56 AM 5.0 °F -2.1 °F 1.4 °F 85% 29.97 in 10.0 mi NNW 3.5 mph - N/A Snow Light Snow
2:16 AM 5.0 °F -4.1 °F 1.4 °F 85% 29.97 in 7.0 mi WNW 4.6 mph - N/A Snow Light Snow
2:56 AM 3.2 °F - 1.4 °F 92% 29.96 in 4.0 mi Calm Calm - N/A Snow Light Snow
3:16 AM 3.2 °F -7.8 °F 1.4 °F 92% 29.95 in 10.0 mi NNW 5.8 mph - N/A Snow Light Snow
3:37 AM 1.4 °F - -0.4 °F 92% 29.95 in 10.0 mi Calm Calm - N/A   Overcast
3:56 AM 1.4 °F - -2.2 °F 85% 29.94 in 10.0 mi Calm Calm - N/A   Overcast
4:16 AM -0.4 °F - -2.2 °F 92% 29.93 in 10.0 mi Calm Calm - N/A   Scattered Clouds
4:37 AM -2.2 °F -14.2 °F -5.8 °F 85% 29.94 in 10.0 mi WNW 5.8 mph - N/A   Mostly Cloudy
4:56 AM -2.2 °F -12.5 °F -5.8 °F 85% 29.93 in 10.0 mi WNW 4.6 mph - N/A   Overcast
5:16 AM -2.2 °F -10.4 °F -5.8 °F 85% 29.94 in 10.0 mi West 3.5 mph - N/A   Overcast
5:37 AM -2.2 °F -14.2 °F -5.8 °F 85% 29.93 in 10.0 mi WNW 5.8 mph - N/A   Overcast
5:56 AM -4.0 °F -12.4 °F -7.6 °F 85% 29.93 in 10.0 mi WNW 3.5 mph - N/A   Overcast
6:17 AM -5.8 °F -14.5 °F -9.4 °F 84% 29.93 in 10.0 mi WNW 3.5 mph - N/A   Overcast
6:37 AM -5.8 °F - -9.4 °F 84% 29.93 in 10.0 mi Calm Calm - N/A   Scattered Clouds
6:56 AM -7.6 °F - -9.4 °F 92% 29.92 in 10.0 mi Calm Calm - N/A   Clear
7:17 AM -7.6 °F - -11.2 °F 84% 29.92 in 10.0 mi Calm Calm - N/A   Clear
7:37 AM -9.4 °F - -11.2 °F 92% 29.92 in 10.0 mi Calm Calm - N/A   Clear
7:56 AM -11.2 °F - -14.8 °F 84% 29.91 in 10.0 mi Calm Calm - N/A   Clear
8:17 AM -11.2 °F - -14.8 °F 84% 29.90 in 10.0 mi Calm Calm - N/A   Clear
8:37 AM -11.2 °F - -14.8 °F 84% 29.90 in 10.0 mi Calm Calm - N/A   Clear
8:56 AM -9.4 °F -18.6 °F -11.2 °F 92% 29.90 in 10.0 mi West 3.5 mph - N/A   Clear
9:17 AM -9.4 °F - -11.2 °F 92% 29.90 in 10.0 mi Calm Calm - N/A   Mostly Cloudy
9:37 AM -7.6 °F - -9.4 °F 92% 29.89 in 10.0 mi Calm Calm - N/A   Scattered Clouds
9:56 AM -5.8 °F - -7.6 °F 92% 29.89 in 4.0 mi Calm Calm - N/A   Clear
10:17 AM -4.0 °F - -7.6 °F 85% 29.90 in 4.0 mi Calm Calm - N/A   Clear
10:37 AM -2.2 °F - -5.8 °F 85% 29.90 in 7.0 mi Calm Calm - N/A   Clear
10:56 AM -0.4 °F - -5.8 °F 78% 29.89 in 10.0 mi Calm Calm - N/A   Clear
11:17 AM -0.4 °F - -5.8 °F 78% 29.87 in 10.0 mi Calm Calm - N/A   Clear
11:37 AM 1.4 °F - -2.2 °F 85% 29.87 in 10.0 mi Calm Calm - N/A   Clear
11:56 AM 3.2 °F - -2.2 °F 78% 29.86 in 10.0 mi Calm Calm - N/A   Clear
12:17 PM 5.0 °F - -0.4 °F 78% 29.85 in 10.0 mi Calm Calm - N/A   Clear
12:37 PM 6.8 °F - -0.4 °F 72% 29.84 in 10.0 mi Calm Calm - N/A   Clear
12:56 PM 6.8 °F - 1.4 °F 79% 29.84 in 10.0 mi Calm Calm - N/A   Clear
1:16 PM 8.6 °F - 1.4 °F 73% 29.83 in 10.0 mi Calm Calm - N/A   Clear
1:36 PM 8.6 °F - 1.4 °F 73% 29.83 in 10.0 mi Calm Calm - N/A   Clear
1:57 PM 8.6 °F - 1.4 °F 73% 29.82 in 10.0 mi Calm Calm - N/A   Clear
2:16 PM 10.4 °F - 3.2 °F 73% 29.82 in 10.0 mi Calm Calm - N/A   Clear
2:36 PM 10.4 °F - 3.2 °F 73% 29.81 in 10.0 mi Calm Calm - N/A   Clear
2:57 PM 10.4 °F - 3.2 °F 73% 29.81 in 10.0 mi Calm Calm - N/A   Clear
3:16 PM 10.4 °F - 3.2 °F 73% 29.81 in 10.0 mi Calm Calm - N/A   Clear
3:37 PM 10.4 °F - 3.2 °F 73% 29.81 in 10.0 mi Calm Calm - N/A   Clear
3:56 PM 10.4 °F - 3.2 °F 73% 29.81 in 10.0 mi Calm Calm - N/A   Clear
4:16 PM 8.6 °F - 3.2 °F 79% 29.81 in 10.0 mi Calm Calm - N/A   Clear
4:37 PM 5.0 °F - 1.4 °F 85% 29.81 in 10.0 mi Calm Calm - N/A   Clear
4:56 PM 1.4 °F - -0.4 °F 92% 29.81 in 10.0 mi Calm Calm - N/A   Clear
5:16 PM -0.4 °F - -2.2 °F 92% 29.81 in 10.0 mi Calm Calm - N/A   Clear
5:37 PM -0.4 °F - -4.0 °F 85% 29.81 in 10.0 mi Calm Calm - N/A   Clear
5:56 PM -2.2 °F - -5.8 °F 85% 29.81 in 10.0 mi Calm Calm - N/A   Clear
6:17 PM -4.0 °F - -7.6 °F 85% 29.80 in 10.0 mi Calm Calm - N/A   Clear
6:36 PM -4.0 °F - -7.6 °F 85% 29.79 in 10.0 mi Calm Calm - N/A   Clear
6:56 PM -4.0 °F - -7.6 °F 85% 29.79 in 10.0 mi Calm Calm - N/A   Clear
7:17 PM -5.8 °F - -9.4 °F 84% 29.79 in 10.0 mi Calm Calm - N/A   Clear
7:36 PM -5.8 °F - -9.4 °F 84% 29.78 in 10.0 mi Calm Calm - N/A   Clear
7:57 PM -5.8 °F - -9.4 °F 84% 29.79 in 10.0 mi Calm Calm - N/A   Clear
8:14 PM -5.8 °F - -9.4 °F 84% 29.78 in 10.0 mi Calm Calm - N/A   Clear
8:56 PM -5.8 °F - -9.4 °F 84% 29.77 in 10.0 mi Calm Calm - N/A   Clear
9:17 PM -5.8 °F - -9.4 °F 84% 29.77 in 10.0 mi Calm Calm - N/A   Clear
9:37 PM -5.8 °F - -9.4 °F 84% 29.76 in 10.0 mi Calm Calm - N/A   Clear
9:56 PM -5.8 °F - -9.4 °F 84% 29.76 in 10.0 mi Calm Calm - N/A   Clear
10:17 PM -5.8 °F - -9.4 °F 84% 29.75 in 10.0 mi Calm Calm - N/A   Clear
10:37 PM -5.8 °F - -9.4 °F 84% 29.75 in 10.0 mi Calm Calm - N/A   Clear
10:56 PM -7.6 °F - -9.4 °F 92% 29.74 in 10.0 mi Calm Calm - N/A   Clear
11:17 PM -7.6 °F - -9.4 °F 92% 29.74 in 10.0 mi Calm Calm - N/A   Clear
11:36 PM -7.6 °F - -11.2 °F 84% 29.73 in 10.0 mi Calm Calm - N/A   Clear
11:56 PM -5.8 °F - -9.4 °F 84% 29.73 in 10.0 mi Calm Calm - N/A   Clear